Location: Fox Meadow
(41.5542°N, 88.1450°W)
Time: 03:10:33
(UTC+00:00)

Daily predictions for brighter satellites

Satellite Brightness Start Highest point End
(mag) Time Altitude Azimuth Time Altitude Azimuth Time Altitude Azimuth
NOSS 3-2 (A) 4.5 01:34:46 10° NW 01:42:28 70° WSW 01:51:04 10° SSE
deb Kosmos-1763 3.9 01:41:41 10° S 01:45:10 68° ESE 01:48:40 10° NNE
Cosmos 1869 3.2 01:47:11 10° N 01:51:03 73° E 01:54:53 10° SSE
COSMOS 2406 3.5 01:49:16 10° S 01:54:39 46° ESE 02:00:05 10° NE
Cosmos 2058 3.6 01:51:27 10° SSE 01:55:12 34° E 01:59:00 10° NNE
USA 306 3.0 01:52:11 10° NW 01:56:27 75° SW 02:00:41 10° SE
Cosmos 1825 2.3 01:52:51 10° S 01:56:29 51° E 02:00:08 10° NNE
SAR-Lupe-1 4.2 01:53:20 10° N 01:56:55 78° WNW 02:00:28 10° SSW
SAR-Lupe-4 3.6 01:53:44 10° NNE 01:57:21 89° WNW 02:00:55 10° SSW
NOSS 3-4 (A) 3.3 01:51:47 10° SSW 01:57:34 85° ESE 02:03:44 10° NE
NOSS 3-4 (C) 3.3 01:51:54 10° SSW 01:57:40 84° ESE 02:03:50 10° NE
OBJECT-B 2.1 01:58:03 10° S 02:01:05 40° W 02:04:08 10° NNW
Cosmos 405 Rocket 3.6 01:59:26 10° SSW 02:03:14 55° WNW 02:07:08 10° N
SJ-6B 3.5 02:00:06 10° S 02:03:45 51° W 02:07:24 10° NNW
USA 32 4.0 01:58:47 10° N 02:04:03 80° E 02:09:16 10° S
Cosmos 1656 3.7 01:59:52 10° NNW 02:05:33 82° ENE 02:11:07 10° SSE
ATLAS 2AS CENTAUR R/B 3.1 01:58:45 10° SSW 02:06:24 57° ESE 02:14:00 10° NE
Cosmos 1980 Rocket 3.6 02:02:58 10° N 02:07:34 25° NE 02:12:06 10° ESE
Cosmos 1437 Rocket 2.7 02:05:28 10° N 02:09:18 90° W 02:13:12 10° S
NOSS 3-2 (C) 4.3 02:01:48 10° NW 02:09:33 76° WSW 02:18:13 10° SSE
Resurs 01 Rocket 1.8 02:09:03 10° SSE 02:13:22 55° ENE 02:17:43 10° N
Cosmos 1437 2.6 02:14:30 10° N 02:17:13 48° E 02:19:12 16° SSE
Cosmos 1408 4.0 02:13:49 10° SSW 02:17:17 41° W 02:20:46 10° N
NOSS 2 (A) 4.1 02:16:40 10° NW 02:19:14 69° SW 02:20:51 18° SSE
RESURS DK-1 3.2 02:19:06 10° SSE 02:22:40 29° ESE 02:26:18 10° NE
Cosmos 2098 Rocket 3.5 02:22:42 18° ESE 02:23:42 21° E 02:26:08 10° NE
ATLAS 3B R/B 3.9 02:20:17 10° NNW 02:26:36 33° NE 02:32:46 11° ESE
BREEZE-M DEB (TANK) 4.3 02:23:33 10° NW 02:26:37 43° NNE 02:34:56 10° E
USA 267 3.8 02:21:55 10° ENE 02:27:41 33° SE 02:33:26 10° S
CENTAUR R/B 3.9 02:20:14 10° NW 02:28:18 53° WSW 02:36:51 10° S
Cosmos 1633 3.2 02:29:09 17° SSE 02:31:24 36° E 02:34:44 10° NNE
SPOT 1/Viking Rocket 3.8 02:28:26 15° SE 02:32:31 53° ENE 02:37:35 10° N
MetOp-B 4.3 02:28:46 14° SSE 02:33:19 62° ENE 02:38:36 10° N
ISS -1.0 02:31:15 10° NNW 02:33:23 16° N 02:35:30 10° NE
Meteor 2-2 Rocket 4.3 02:28:40 10° N 02:34:32 89° E 02:40:10 10° S
Cosmos 2360 4.3 02:29:03 10° NNW 02:34:44 65° ENE 02:38:56 18° SE
Cosmos 44 Rocket 3.4 02:30:29 10° SSW 02:35:38 75° ESE 02:40:53 10° NE
SL-16 R/B 4.3 02:36:43 10° NNE 02:39:43 14° NE 02:42:43 10° ENE
ERS-2 3.3 02:36:15 10° N 02:39:44 44° WNW 02:43:12 10° SW
ARIANE 5 R/B 3.7 02:38:33 19° ESE 02:40:54 31° ENE 02:44:51 10° N
Ariane Rocket 3.9 02:38:46 10° S 02:43:40 48° W 02:48:35 10° NNW
Cosmos 2180 Rocket 4.4 02:39:25 10° N 02:45:39 87° E 02:51:12 13° S
SPOT 5 3.8 02:44:08 19° ESE 02:46:03 27° ENE 02:49:41 10° N
CZ-2C R/B 3.6 02:44:58 10° NNE 02:49:32 69° ESE 02:53:38 12° S
SEDSat Delta rocket 4.3 02:47:02 10° SW 02:49:48 19° S 02:49:48 19° S
Cosmos 1242 Rocket 3.7 02:47:15 10° NNW 02:50:39 39° W 02:53:50 11° SSW
OAO 2 Rocket 4.0 02:46:54 10° WSW 02:51:27 35° S 02:53:28 25° SSE
Cosmos 2221 2.6 02:48:42 10° N 02:53:00 76° W 02:56:12 18° S
IRIS 4.4 02:50:55 10° W 02:53:43 63° S 02:55:21 30° ESE
CARTOSAT-1 3.9 02:51:42 26° SE 02:53:49 48° ENE 02:57:59 10° N
USA 307 4.5 02:51:47 10° WNW 02:55:20 26° SW 02:57:40 16° S
Cosmos 371 Rocket 3.9 02:58:33 10° N 03:03:08 43° ENE 03:05:07 28° ESE
ERBS 2.7 03:01:42 10° NW 03:04:51 48° NE 03:05:39 37° E
Cosmos 1697 Rocket 3.0 03:00:08 10° NNW 03:05:45 64° WSW 03:09:28 21° S
GRACE-FO 1 4.4 03:02:39 10° N 03:06:16 83° E 03:07:43 34° S
Terra 2.8 03:04:43 25° ESE 03:06:27 33° ENE 03:10:42 10° N
GRACE-FO 2 4.4 03:03:05 10° N 03:06:44 84° E 03:08:09 35° S
Hubble Space Telescope 3.1 03:07:01 10° SSW 03:07:16 11° SSW 03:07:16 11° SSW
Cosmos 1606 2.9 03:05:38 10° NNW 03:09:22 65° W 03:11:14 28° S
Cosmos 2082 Rocket 2.3 03:05:53 10° SSW 03:11:29 78° WNW 03:17:11 10° NNE
SPOT 3 Rocket 4.3 03:09:28 14° S 03:13:42 49° W 03:18:47 10° NNW
Cosmos 2278 3.8 03:08:06 10° NNW 03:13:44 63° ENE 03:16:23 32° SE
Meteor 2-15 4.4 03:08:24 10° N 03:14:28 71° E 03:17:44 29° SSE
Cosmos 1833 Rocket 4.2 03:10:13 10° SW 03:15:24 37° WNW 03:20:37 10° N
BREEZE-M R/B 4.0 03:13:05 10° SSW 03:17:23 27° S 03:17:23 27° S
Cosmos 2195 Rocket 4.5 03:16:45 26° SSE 03:20:15 63° E 03:26:17 10° NNE
Cosmos 1782 3.8 03:19:22 10° NNE 03:22:58 31° ENE 03:23:15 30° E
Cosmos 2151 2.9 03:23:48 34° S 03:25:35 89° W 03:29:51 10° N
Cosmos 2360 Rocket 4.3 03:26:43 10° N 03:30:05 16° NE 03:33:01 11° E
Meteor 2-15 Rocket 4.4 03:24:12 10° N 03:30:18 74° E 03:32:59 35° SSE
Centaur D AC-29 4.5 03:28:15 10° WSW 03:30:29 11° WSW 03:32:17 10° SW
Cosmos 1092 Rocket 3.9 03:29:20 25° S 03:33:14 85° E 03:39:33 10° N
GP-B 3.0 03:29:09 10° N 03:33:37 83° E 03:34:52 47° S
Cosmos 332 Rocket 4.0 03:33:42 10° NNW 03:38:31 56° ENE 03:39:38 45° ESE
Meteor 2-3 Rocket 3.6 03:36:27 29° S 03:39:25 88° E 03:45:08 10° N
Cosmos 2369 4.4 03:35:19 10° NW 03:40:41 46° WSW 03:43:18 27° SSW
Cosmos 1680 Rocket 4.0 03:40:31 39° ESE 03:40:46 39° ESE 03:45:38 10° NE
ERS-1 Rocket 3.0 03:40:52 41° S 03:42:38 78° WSW 03:47:41 10° NNW
Spot 2 Rocket 4.1 03:41:46 29° SSW 03:44:08 52° W 03:49:07 10° NNW
Cosmos 1151 Rocket 3.5 03:40:19 10° N 03:44:29 45° ENE 03:44:42 44° E
Resurs 01 Rocket 4.2 03:47:58 10° WSW 03:50:12 14° W 03:52:26 10° WNW
Okean 3 Rocket 3.7 03:50:14 55° E 03:50:18 55° E 03:54:42 10° NNE
BREEZE-M DEB (TANK) 3.1 03:47:51 10° WNW 03:51:30 86° NNE 03:55:45 30° ESE
Cosmos 1980 Rocket 2.7 03:46:24 10° NNW 03:51:51 51° WSW 03:53:52 35° SSW
Cosmos 2026 Rocket 4.0 03:49:08 30° S 03:52:29 86° W 03:58:51 10° N
BREEZE M DEB (TANK) 3.6 03:49:12 10° WSW 03:52:48 78° SSE 04:14:19 10° ENE
ATLAS 2AS CENTAUR R/B 4.3 03:50:23 10° WSW 03:57:43 40° NW 04:04:55 10° NNE
Cosmos 2322 Rocket 3.0 03:54:15 10° N 03:59:33 40° ENE 04:00:59 34° E
H-2A R/B 3.3 03:55:45 10° NNE 03:59:53 75° E 03:59:53 75° E
Cosmos 158 Rocket 4.3 03:58:13 24° SW 04:01:12 61° WNW 04:06:24 10° NNE
Cosmos 1271 Rocket 2.9 03:59:11 10° NNW 04:03:08 67° W 04:03:10 67° W
Meteor 2-6 Rocket 4.3 04:04:37 10° N 04:09:58 54° ENE 04:10:37 51° ESE
ISS -2.2 04:07:47 10° NW 04:10:34 34° N 04:10:34 34° N
USA 267 3.4 04:04:28 10° NE 04:10:59 72° NW 04:17:30 10° WSW
ARIANE 5 R/B 4.3 04:16:06 22° WSW 04:17:20 25° W 04:21:04 10° NW
Meteor 2-21 4.4 04:16:05 52° S 04:17:43 83° E 04:23:55 10° N
ATLAS 3B R/B 3.0 04:10:41 10° NW 04:17:45 64° WSW 04:20:00 45° S
Cosmos 2292 Rocket 4.3 04:16:19 50° SSW 04:17:52 82° W 04:24:55 10° N
SPOT 5 4.1 04:23:22 25° WSW 04:24:05 26° W 04:27:44 10° NW
SL-16 R/B 2.1 04:19:03 10° NNW 04:24:45 81° ENE 04:25:32 67° SE
Cosmos 1408 Rocket 3.9 04:25:28 58° NE 04:25:28 58° NE 04:29:09 10° NNE
USA 276 4.4 04:23:42 10° NW 04:25:54 23° N 04:25:54 23° N
Cosmos 304 Rocket 4.1 04:21:58 10° NNW 04:26:38 53° WSW 04:26:50 53° WSW
Cosmos 2219 Rocket 4.2 04:23:31 10° N 04:27:12 18° NE 04:29:33 14° ENE
Cosmos 1553 Rocket 3.9 04:26:07 10° N 04:32:12 77° W 04:33:26 58° SSW
Cosmos 1655 Rocket 3.9 04:32:56 60° SE 04:33:57 71° E 04:40:18 10° NNE
Cosmos 2266 Rocket 3.9 04:37:31 63° SE 04:38:09 67° E 04:44:16 10° NNE
Meteor 1-10 Rocket 4.0 04:33:08 10° N 04:38:43 74° E 04:39:04 71° ESE
Cosmos 220 Rocket 4.4 04:36:59 10° NNW 04:40:38 60° N 04:40:38 60° N
COSMOS 2455 4.1 04:44:29 27° E 04:44:29 27° E 04:48:11 10° NE
USA 234 3.4 04:41:00 41° ESE 04:43:23 70° NE 04:49:55 10° NW
Terra 3.3 04:43:36 25° WSW 04:44:12 26° W 04:48:11 10° NW
COBE Rocket 3.9 04:44:51 68° NNE 04:44:51 68° NNE 04:49:05 10° N
Cosmos 1862 4.3 04:47:45 46° NW 04:47:45 46° NW 04:50:58 10° N
Cosmos 1515 Rocket 3.9 04:43:47 10° N 04:47:35 64° NNW 04:47:35 64° NNW
Meteor 2-16 Rocket 4.3 04:50:10 67° SSW 04:51:02 85° W 04:57:09 10° N
Cosmos 1812 4.2 04:51:47 10° NNW 04:54:26 32° WNW 04:54:26 32° WNW
ALOS 2 3.6 04:56:16 40° NE 04:56:16 40° NE 04:59:45 10° N
Cosmos 883 Rocket 4.4 04:50:59 10° N 04:57:12 72° E 04:57:49 67° ESE
S3M 4.0 04:53:16 10° NNW 04:59:37 72° W 05:00:35 61° SW
IRIDIUM 104 4.3 04:55:30 10° N 05:00:28 72° ENE 05:00:28 72° ENE
Cosmos 2056 Rocket 3.5 04:55:25 10° NNW 05:00:39 82° WNW 05:00:39 82° WNW
Cosmos 1833 4.1 05:07:05 86° SE 05:07:09 87° ESE 05:12:58 10° NNE
ATLAS 5 CENTAUR R/B 4.5 05:03:40 10° N 05:07:28 19° NE 05:11:40 10° E
Cosmos 2333 Rocket 3.0 05:03:34 10° N 05:08:53 41° ENE 05:09:38 39° ENE
IRIDIUM 114 4.3 05:04:37 10° N 05:09:35 80° N 05:09:35 80° N
Gbstr 26 Del rocket 4.1 05:08:20 10° NW 05:10:47 37° NW 05:10:47 37° NW
Cosmos 2360 Rocket 2.1 05:09:12 10° NNW 05:14:45 87° NW 05:14:45 87° NW
IRIDIUM 103 4.4 05:13:48 10° N 05:18:43 72° WNW 05:18:43 72° WNW
Cosmos 2322 4.1 05:18:35 10° NNW 05:24:11 51° ENE 05:24:37 50° ENE
NOSS 3-1 (C) 4.4 05:20:13 10° NNW 05:27:43 61° NE 05:31:18 37° ESE
Cosmos 1805 Rocket 4.4 05:31:03 49° N 05:31:03 49° N 05:34:23 10° N
Cosmos 2297 Rocket 4.2 05:37:04 16° E 05:37:04 16° E 05:39:26 10° ENE
Cosmos 1244 Rocket 4.3 05:40:47 77° ESE 05:40:53 77° E 05:47:04 10° N
Cosmos 2237 Rocket 4.3 05:37:31 10° N 05:41:41 20° NE 05:44:36 14° E
Cosmos 2322 Rocket 3.5 05:38:36 10° NW 05:42:47 29° W 05:42:47 29° W
Cosmos 2227 Rocket 4.3 05:47:43 14° E 05:47:43 14° E 05:49:55 10° ENE
Cosmos 2285 Rocket 3.8 05:51:43 10° NNW 05:58:02 86° WSW 05:58:13 84° SSW
NOSS 3-1 (A) 4.5 05:52:06 10° NNW 05:59:35 60° NE 06:04:02 30° ESE
Meteor 2-4 Rocket 4.4 05:54:00 10° N 05:59:44 47° ENE 06:00:14 46° E
CZ-2D R/B 4.4 05:58:49 10° ENE 06:00:48 12° E 06:01:02 12° E
Cosmos 1048 Rocket 4.2 06:04:18 63° NNW 06:04:18 63° NNW 06:08:54 10° NNE
COSMOS 2428 2.7 06:00:43 10° NNW 06:06:19 78° NE 06:06:19 78° NE
SL-16 R/B 4.4 06:05:26 10° WNW 06:07:23 13° W 06:07:23 13° W
Cosmos 2219 Rocket 2.2 06:06:13 10° NNW 06:11:15 70° NW 06:11:15 70° NW
Cosmos 494 Rocket 4.2 06:13:22 65° NNW 06:13:22 65° NNW 06:17:53 10° NNE
Thor Agena Rocket 3.7 06:10:48 10° N 06:15:18 67° NNW 06:15:18 67° NNW
Cosmos 1633 Rocket 4.1 06:18:12 44° NNW 06:18:12 44° NNW 06:21:19 10° N
APEX 4.4 06:20:03 62° ENE 06:20:03 62° ENE 06:25:39 10° NNE
Meteor 2-17 Rocket 4.5 06:23:27 65° ESE 06:23:39 65° E 06:29:38 10° NNE
USA 234 4.3 06:28:20 30° W 06:28:20 30° W 06:32:32 10° WNW
COSMOS 2455 3.5 06:27:36 42° W 06:28:45 47° NW 06:34:33 10° NNE
Cosmos 1666 4.4 06:31:32 32° N 06:31:32 32° N 06:33:44 10° N
Cosmos 2219 3.9 06:34:37 42° E 06:34:37 42° E 06:39:45 10° NE
CZ-3B R/B 4.0 06:31:32 10° NW 06:33:35 21° WNW 06:33:35 21° WNW
NOSS 0 Rocket 3.9 06:31:38 10° NNW 06:37:54 79° ENE 06:38:37 69° SE
Cosmos 1709 Rocket 4.1 06:37:29 60° ESE 06:38:07 64° E 06:44:23 10° NNE
Cosmos 1745 Rocket 4.0 06:45:31 64° WSW 06:45:56 66° W 06:52:11 10° N
MOZ.5/SAFIR/RUBIN 5/SL-8 4.4 06:47:17 49° ENE 06:47:20 49° ENE 06:51:54 10° N
ATLAS 5 CENTAUR R/B 2.4 06:47:07 10° NNW 06:52:51 78° NE 06:54:21 54° SE
Cosmos 2333 Rocket 3.6 06:48:10 10° NW 06:51:37 26° W 06:51:37 26° W
Cosmos 1703 Rocket 4.2 06:51:55 10° N 06:55:22 54° NNE 06:55:22 54° NNE
Meteor 1-11 Rocket 3.7 06:56:39 64° ESE 06:56:53 65° E 07:02:21 10° NNE
Lacrosse 5 2.6 06:57:57 44° E 06:57:57 44° E 07:01:51 10° NE
Cosmos 1536 4.0 06:58:20 39° NE 06:58:20 39° NE 07:01:09 10° NNE
Cosmos 1980 3.6 06:56:21 10° NNW 07:02:03 84° ENE 07:02:27 77° SE
SL-16 R/B 3.3 07:00:09 29° ESE 07:02:54 46° ENE 07:08:46 10° N
Resurs 1-4 Rocket 2.7 06:58:00 10° NNE 07:03:06 45° E 07:03:26 44° ESE
Nadezhda 1 Rocket 4.4 07:03:28 10° NNW 07:09:33 46° W 07:09:56 46° W
CZ-4 R/B 4.0 07:11:25 10° N 07:16:20 69° WNW 07:16:20 69° WNW
ARGOS Delta rocket 4.1 07:14:06 10° N 07:18:22 56° NW 07:18:22 56° NW
Cosmos 2297 Rocket 2.2 07:18:52 64° W 07:19:25 69° WNW 07:25:05 10° NNE
Cosmos 2242 Rocket 4.3 07:16:41 10° NNW 07:20:03 46° NW 07:20:03 46° NW
NPP 4.0 07:18:01 10° NNE 07:23:19 54° E 07:24:07 49° SE
Cosmos 2074 Rocket 4.4 07:23:14 41° SE 07:25:02 55° E 07:31:05 10° NNE
Cosmos 2237 Rocket 2.1 07:20:38 10° NNW 07:26:16 67° WSW 07:26:22 67° WSW
ASTEX 1 3.4 07:29:44 67° WNW 07:29:44 67° WNW 07:34:26 10° N
Meteor 1-13 Rocket 4.2 07:23:55 10° NNW 07:29:41 66° W 07:30:08 63° WSW
USA 229 DEB 4.2 07:23:04 10° NW 07:30:05 45° WSW 07:30:33 45° SW
USA 229 4.2 07:23:09 10° NW 07:30:11 46° WSW 07:30:42 45° SW
Cosmos 2227 Rocket 2.1 07:29:32 66° WSW 07:30:13 75° WNW 07:35:54 10° NNE
ADEOS Rocket 3.3 07:29:11 31° SE 07:31:43 54° ENE 07:37:04 10° N
Cosmos 1743 3.2 07:39:45 56° N 07:39:45 56° N 07:42:51 10° N
Cosmos 1869 Rocket 4.0 07:39:47 53° WNW 07:39:47 53° WNW 07:43:52 10° N
CZ-2D R/B 2.0 07:36:03 10° NNE 07:41:28 85° WNW 07:42:22 64° SSW
Cosmos 2181 Rocket 4.0 07:35:35 10° NNW 07:41:55 71° W 07:43:19 53° SSW
ADEOS II 2.7 07:38:15 10° NNE 07:43:20 48° E 07:44:44 38° SE
SL-16 R/B 2.4 07:44:32 10° NNW 07:50:12 68° ENE 07:53:48 23° SE
Cosmos 614 Rocket 4.0 07:50:06 56° SSE 07:51:02 70° ESE 07:56:15 10° NNE
Meteor 1-23 Rocket 4.1 07:46:51 10° NNW 07:52:33 76° W 07:53:55 53° SSW
Helios 1A 4.4 07:53:56 27° WNW 07:53:56 27° WNW 07:56:30 10° NNW
Cosmos 2263 Rocket 3.5 07:54:29 24° SE 07:56:47 32° ESE 08:01:46 10° NE
Okean 3 4.3 07:52:47 10° NNW 07:56:06 37° WNW 07:56:06 37° WNW
Cosmos 1975 3.6 07:57:17 42° ESE 07:57:54 46° E 08:01:49 10° NNE
ATLAS CENTAUR R/B 3.7 07:57:40 12° ESE 07:58:12 12° ESE 07:59:39 10° E
Cosmos 2221 Rocket 3.6 07:55:58 10° N 08:00:32 81° E 08:01:25 57° SSE
CZ-4C R/B 4.1 07:53:53 10° NNW 08:00:47 45° NE 08:08:41 10° ESE
Cosmos 407 Rocket 4.4 08:01:06 30° SSE 08:03:04 42° ESE 08:08:01 10° NNE
Cosmos 1992 Rocket 4.0 08:00:03 10° NNW 08:05:12 60° WSW 08:05:56 54° SW
Cosmos 1461 3.7 08:05:09 40° SE 08:05:54 44° ESE 08:10:12 10° NE
Cosmos 2344 3.9 08:04:50 30° S 08:08:26 52° ESE 08:15:41 10° NE
Meteor 1-29 3.2 08:07:38 10° NNE 08:10:46 60° E 08:10:46 60° E
Helios 1B rocket 2.6 08:10:39 10° N 08:14:40 55° WNW 08:14:58 54° W
UNK 4.1 08:15:00 45° WSW 08:15:09 46° W 08:19:40 10° NNW
Cosmos 1674 Rocket 3.8 08:12:21 10° N 08:16:46 67° E 08:18:38 33° SSE
Cosmos 2219 4.5 08:16:32 24° W 08:18:38 30° NW 08:23:40 10° N
Cosmos 1238 Rocket 2.6 08:18:44 57° E 08:18:44 57° E 08:21:56 10° NNE
Cosmos 1842 3.0 08:18:06 10° N 08:21:58 77° W 08:22:21 68° SSW
Nadezhda 3 Rocket 4.0 08:15:58 10° N 08:22:23 88° E 08:26:34 23° S
Cosmos 2327 Rocket 4.4 08:25:50 33° SSW 08:28:46 77° W 08:34:57 10° N
BREEZE-M DEB (TANK) 2.9 08:30:28 57° ESE 08:30:28 57° ESE 08:32:28 10° ENE
IDEFIX/ARIANE 42P 2.6 08:28:31 10° NNE 08:33:43 77° ESE 08:36:25 29° S
CBERS-1 4.0 08:28:42 10° NNE 08:33:51 80° ESE 08:36:24 30° S
ATLAS 5 CENTAUR R/B 3.9 08:32:55 10° WNW 08:35:47 19° W 08:35:47 19° W
Cosmos 1378 Rocket 3.4 08:33:32 10° N 08:37:56 82° W 08:39:54 32° S
Cosmos 2251 Rocket 4.2 08:36:33 30° WSW 08:38:24 40° WNW 08:43:22 10° N
Cosmos 2082 4.4 08:36:22 28° WSW 08:38:45 42° WNW 08:44:11 10° NNE
Lacrosse 5 3.1 08:37:08 19° W 08:40:05 33° NNW 08:44:41 10° NNE
Resurs 1-4 Rocket 3.5 08:38:24 10° NNW 08:42:36 24° WNW 08:44:30 20° W
USA 215 4.1 08:37:43 10° ENE 08:43:46 39° SE 08:47:58 19° S
Cosmos 1908 Rocket 3.5 08:42:21 32° S 08:44:17 86° E 08:48:38 10° N
Cosmos 1356 Rocket 3.2 08:44:46 40° SSW 08:46:07 75° W 08:50:08 10° N
SL-16 R/B 3.4 08:45:15 26° WSW 08:46:39 28° W 08:51:54 10° NW
Cosmos 1674 4.2 08:46:39 10° N 08:50:14 36° ENE 08:53:47 10° SE
Cosmos 1733 Rocket 4.2 08:50:26 26° W 08:51:27 28° WNW 08:55:20 10° NNW
Cosmos 2154 Rocket 4.4 08:50:40 27° SW 08:53:43 46° WNW 08:59:39 10° N
BREEZE-M DEB (TANK) 4.0 08:45:45 19° WSW 08:53:50 81° NNW 08:57:23 10° ENE
SWARM C 4.5 08:53:20 45° SSW 08:54:09 65° W 08:57:27 10° N
SWARM A 4.2 08:53:26 45° SSW 08:54:12 63° W 08:57:31 10° N
Cosmos 1190 Rocket 4.0 08:51:32 26° SSW 08:54:34 90° SW 08:59:55 10° NNE
DELTA 2 DEB (DPAF) 4.2 08:53:13 27° SSW 08:55:25 55° W 08:59:47 10° NNW
SL-8 R/B 3.6 08:53:11 29° WSW 08:55:37 87° NNW 09:00:27 10° ENE
Cosmos 1140 Rocket 3.5 08:54:55 28° SW 08:57:44 68° WNW 09:02:58 10° NNE
IKONOS-2 4.4 08:54:52 16° S 08:58:11 80° WSW 09:02:28 10° NNW
Meteor 1-21 4.4 08:55:55 10° NNW 09:01:33 55° W 09:05:54 17° SSW
Cosmos 2297 Rocket 4.4 09:02:17 10° WNW 09:04:34 12° NW 09:06:51 10° NNW
ASTRO E2 4.4 09:05:37 17° S 09:05:48 17° S 09:08:28 10° SE
MSX 3.8 09:00:06 10° N 09:05:51 78° WNW 09:10:10 18° SSW
CZ-4B R/B 3.8 09:01:29 10° NNE 09:06:17 58° E 09:10:43 11° S
Okean 2 4.0 09:03:30 10° NNW 09:07:23 38° W 09:09:08 26° SW
CZ-4C R/B 3.3 09:04:26 15° S 09:07:42 70° WSW 09:11:57 10° NNW
Cosmos 44 3.6 09:03:04 10° NNW 09:08:19 75° NE 09:13:13 10° SE
Cosmos 1954 Rocket 4.2 09:04:41 18° S 09:08:44 75° ESE 09:14:04 10° NNE
BREEZE-M DEB (TANK) 3.2 09:05:56 10° WNW 09:09:11 50° NNE 09:12:07 10° E
Cosmos 1844 Rocket 4.5 09:05:51 10° SSE 09:10:29 27° ESE 09:15:09 10° NE
ARIANE 5 R/B 2.6 09:05:48 10° NNE 09:10:59 79° ESE 09:15:40 13° S
Cosmos 2227 Rocket 4.3 09:12:39 10° WNW 09:15:17 13° NW 09:17:56 10° NNW
Meteor 1-28 Rocket 4.5 09:16:25 21° WSW 09:16:56 22° W 09:19:53 10° NW
Cosmos 1603 3.7 09:11:39 10° NNW 09:17:18 86° ENE 09:22:56 10° SSE
ADEOS Rocket 4.2 09:16:08 17° WSW 09:17:36 19° W 09:21:28 10° NW
CZ-2D R/B 3.7 09:14:43 10° NNE 09:18:43 67° ESE 09:22:36 11° S
Milstar 3 4.2 09:15:44 14° SSW 09:19:09 19° SSE 09:23:49 10° ESE
CZ-2D R/B 4.2 09:18:34 10° NW 09:20:41 12° WNW 09:22:49 10° W
ADEOS II 3.5 09:18:39 10° NNW 09:22:41 23° WNW 09:25:41 14° WSW
Okean 2 Rocket 4.5 09:19:37 10° SSE 09:23:48 38° E 09:28:00 10° NNE
Cosmos 1959 Rocket 4.4 09:17:53 10° S 09:23:59 83° W 09:30:13 10° N
Cosmos 864 Rocket 4.5 09:17:47 10° S 09:24:00 85° W 09:30:19 10° N
CZ-2C R/B 4.2 09:22:00 10° NNE 09:25:26 34° E 09:28:52 10° SSE
Cosmos 1782 Rocket 3.6 09:23:31 16° SSW 09:26:49 60° W 09:31:09 10° N
Sich 1 Rocket 4.0 09:25:26 10° S 09:29:46 64° E 09:34:09 10° NNE
Cosmos 1805 3.2 09:26:33 10° S 09:30:21 87° E 09:34:17 10° N
SL-8 Rocket 4.1 09:24:57 13° SSW 09:30:30 60° W 09:36:36 10° N
IRS-1C 4.4 09:26:34 10° N 09:31:47 55° WNW 09:36:27 13° SW
Cosmos 2366 rocket 4.1 09:26:56 10° SSW 09:33:16 70° W 09:39:38 10° N
SL-16 R/B 3.7 09:30:13 10° WNW 09:33:40 17° W 09:35:34 14° WSW
KORONAS-FOTON 4.0 09:32:04 10° NNW 09:35:54 55° W 09:39:43 10° S
ATLAS CENTAUR R/B 1.5 09:33:49 17° SW 09:36:29 53° NW 09:40:22 10° NNE
NOSS 3-3 (A) 4.4 09:32:01 15° WSW 09:36:42 50° NW 09:43:01 10° NNE
NOSS 3-3 (C) 4.4 09:32:09 15° WSW 09:36:48 50° NW 09:43:07 10° NNE
Cosmos 676 Rocket 4.2 09:32:40 14° SSW 09:37:17 64° WNW 09:42:36 10° NNE
Cosmos 1346 Rocket 4.4 09:36:51 10° N 09:40:31 37° ENE 09:44:08 10° SE
Cosmos 2263 Rocket 3.0 09:36:11 14° WSW 09:40:35 37° WNW 09:45:52 10° N
Cosmos 1707 4.3 09:40:30 10° NW 09:43:12 18° W 09:45:06 13° WSW
SL-14 R/B 3.9 09:40:21 10° N 09:44:12 59° E 09:48:03 10° SSE
PAYLOAD A 4.2 09:39:04 10° NNE 09:44:32 88° WNW 09:49:51 10° SSW
Cosmos 1726 4.4 09:41:41 10° SSE 09:44:42 25° E 09:47:45 10° NE
ALOS 2.8 09:44:33 10° NNE 09:49:12 62° E 09:53:48 10° S
CZ-4C R/B 3.2 09:42:21 10° NW 09:49:38 52° WSW 09:57:50 10° S
GEOS 3 Rocket 3.7 09:45:55 10° SSE 09:51:12 61° WSW 09:56:30 10° NW
Cosmos 1741 Rocket 4.3 09:51:28 10° S 09:56:40 70° ESE 10:01:56 10° NNE
Cosmos 1818 4.4 09:51:40 10° NNW 09:57:07 59° NE 10:02:29 10° SE
Cosmos 1733 3.5 09:53:26 10° SSW 09:57:10 50° W 10:00:56 10° N
Meteor 2-20 Rocket 4.5 09:51:38 10° NNW 09:57:42 65° W 10:03:46 10° S
SL-08 R/B 3.9 09:54:26 10° S 09:59:05 41° W 10:03:46 10° NNW
Cosmos 1766 3.3 09:55:32 10° SSW 09:59:22 65° W 10:03:16 10° N
Cosmos 1763 Rocket 3.6 09:55:00 10° NNW 10:00:21 90° E 10:05:38 10° SSE
Cosmos 1470 4.2 09:56:50 10° SSE 10:00:31 40° E 10:04:12 10° NNE
USA 281 3.6 09:56:41 10° SE 10:03:11 71° ENE 10:09:45 10° NNW
Cosmos 1727 Rocket 4.1 09:59:45 10° NNW 10:05:54 64° W 10:12:05 10° S
Cosmos 1300 Rocket 3.8 10:03:04 10° SSW 10:07:15 49° W 10:11:30 10° N
Meteor 1-15 Rocket 4.5 10:02:50 10° SSW 10:08:41 61° WNW 10:14:31 10° N
USA 290 2.1 10:05:58 10° NNW 10:09:12 69° WSW 10:12:24 10° SSE
